TimeCDT,TemperatureF,Dew PointF,Humidity,Sea Level PressureIn,VisibilityMPH,Wind Direction,Wind SpeedMPH,Gust SpeedMPH,PrecipitationIn,Events,Conditions,WindDirDegrees,DateUTC
12:53 AM,54.0,46.0,75,30.01,10.0,SE,9.2,-,N/A,,Clear,140,2013-10-10 05:53:00
1:53 AM,54.0,46.0,75,30.00,10.0,SSE,10.4,-,N/A,,Clear,150,2013-10-10 06:53:00
2:53 AM,54.0,46.0,75,29.99,10.0,SSE,12.7,-,N/A,,Clear,150,2013-10-10 07:53:00
3:53 AM,54.0,46.0,75,29.99,10.0,SSE,11.5,-,N/A,,Clear,160,2013-10-10 08:53:00
4:53 AM,54.0,45.0,72,29.99,10.0,SSE,11.5,-,N/A,,Clear,160,2013-10-10 09:53:00
5:53 AM,53.1,45.0,74,29.99,10.0,SSE,11.5,-,N/A,,Clear,160,2013-10-10 10:53:00
6:53 AM,52.0,45.0,77,29.99,10.0,South,12.7,-,N/A,,Clear,170,2013-10-10 11:53:00
7:53 AM,52.0,46.0,80,29.99,10.0,South,12.7,-,N/A,,Clear,170,2013-10-10 12:53:00
8:40 AM,55.4,46.4,72,29.98,10.0,South,15.0,-,N/A,,Partly Cloudy,170,2013-10-10 13:40:00
8:53 AM,55.9,46.9,72,29.98,10.0,South,16.1,-,N/A,,Partly Cloudy,170,2013-10-10 13:53:00
9:53 AM,63.0,48.9,60,29.96,10.0,South,17.3,24.2,N/A,,Clear,170,2013-10-10 14:53:00
10:53 AM,69.1,51.1,53,29.96,10.0,South,17.3,-,N/A,,Clear,170,2013-10-10 15:53:00
11:53 AM,75.0,52.0,44,29.94,10.0,South,19.6,25.3,N/A,,Clear,180,2013-10-10 16:53:00
12:53 PM,78.1,50.0,37,29.91,10.0,South,19.6,31.1,N/A,,Clear,180,2013-10-10 17:53:00
1:53 PM,80.1,48.9,34,29.89,10.0,SSE,26.5,-,N/A,,Clear,160,2013-10-10 18:53:00
2:53 PM,81.0,48.0,31,29.86,10.0,SSE,25.3,35.7,N/A,,Clear,160,2013-10-10 19:53:00
3:53 PM,80.1,48.0,32,29.84,10.0,SSE,20.7,34.5,N/A,,Clear,160,2013-10-10 20:53:00
4:53 PM,78.1,46.9,33,29.85,10.0,South,21.9,-,N/A,,Clear,170,2013-10-10 21:53:00
5:53 PM,75.0,48.0,38,29.85,10.0,SSE,16.1,28.8,N/A,,Clear,150,2013-10-10 22:53:00
6:53 PM,71.1,48.9,45,29.84,10.0,SSE,12.7,-,N/A,,Clear,150,2013-10-10 23:53:00
7:53 PM,69.1,48.0,47,29.85,10.0,SE,15.0,-,N/A,,Clear,140,2013-10-11 00:53:00
8:53 PM,66.0,48.0,52,29.85,10.0,SE,16.1,-,N/A,,Clear,140,2013-10-11 01:53:00
9:53 PM,64.0,46.9,54,29.83,10.0,SSE,15.0,-,N/A,,Clear,150,2013-10-11 02:53:00
10:53 PM,62.1,46.9,58,29.82,10.0,SE,12.7,-,N/A,,Clear,140,2013-10-11 03:53:00
11:53 PM,61.0,48.0,62,29.81,10.0,SE,11.5,-,N/A,,Clear,140,2013-10-11 04:53:00